• In Deutschland
  • Länderverzeichnis
  • Für 7 Tage
  • Wassertemperatur
  • Satellitenkarten
  • Wetterkarte
  • Widgets
  • user-avatar
    Anmelden

    Stündliche Wetter Bad Krozingen

    Heute, 17 Oktober, Dienstag

    Zeit Temperatur Niederschläge Wind Luftdruck Luftfeuchtigkeit
    00:00 +15°C° 0 mm 1 m/S 748 mmHg 67%
    01:00 +14°C° 0 mm 1 m/S 748 mmHg 67%
    02:00 +14°C° 0 mm 1 m/S 747 mmHg 66%
    03:00 +14°C° 0 mm 1 m/S 747 mmHg 66%
    04:00 +14°C° 0 mm 1 m/S 747 mmHg 65%
    05:00 +13°C° 0 mm 1 m/S 747 mmHg 64%
    06:00 +13°C° 0 mm 1 m/S 747 mmHg 64%
    07:00 +13°C° 0 mm 1 m/S 747 mmHg 63%
    08:00 +15°C° 0 mm 1 m/S 747 mmHg 59%
    09:00 +19°C° 0 mm 1 m/S 747 mmHg 54%
    10:00 +21°C° 0 mm 1 m/S 747 mmHg 50%
    11:00 +22°C° 0 mm 1 m/S 747 mmHg 46%
    12:00 +24°C° 0 mm 1 m/S 746 mmHg 43%
    13:00 +25°C° 0 mm 1 m/S 746 mmHg 39%
    14:00 +23°C° 0 mm 0 m/S 745 mmHg 43%
    15:00 +22°C° 0 mm 0 m/S 745 mmHg 46%
    16:00 +22°C° 0 mm 0 m/S 744 mmHg 50%
    17:00 +20°C° 0 mm 0 m/S 744 mmHg 54%
    18:00 +17°C° 0 mm 0 m/S 744 mmHg 58%
    19:00 +15°C° 0 mm 0 m/S 744 mmHg 62%
    20:00 +15°C° 0 mm 1 m/S 744 mmHg 63%
    21:00 +15°C° 0 mm 1 m/S 744 mmHg 63%
    22:00 +15°C° 0 mm 1 m/S 744 mmHg 64%
    23:00 +14°C° 0 mm 1 m/S 744 mmHg 64%

    Morgen, 18 Oktober, Mittwoch

    Zeit Temperatur Niederschläge Wind Luftdruck Luftfeuchtigkeit
    00:00 +14°C° 0 mm 1 m/S 743 mmHg 64%
    01:00 +14°C° 0 mm 1 m/S 743 mmHg 64%
    02:00 +14°C° 0 mm 1 m/S 743 mmHg 64%
    03:00 +13°C° 0 mm 1 m/S 743 mmHg 65%
    04:00 +13°C° 0 mm 1 m/S 742 mmHg 66%
    05:00 +13°C° 0 mm 1 m/S 742 mmHg 67%
    06:00 +13°C° 0 mm 1 m/S 742 mmHg 67%
    07:00 +12°C° 0 mm 1 m/S 742 mmHg 68%
    08:00 +14°C° 0 mm 1 m/S 742 mmHg 63%
    09:00 +18°C° 0 mm 1 m/S 742 mmHg 58%
    10:00 +20°C° 0 mm 1 m/S 742 mmHg 53%
    11:00 +21°C° 0 mm 1 m/S 742 mmHg 49%
    12:00 +22°C° 0 mm 1 m/S 742 mmHg 46%
    13:00 +24°C° 0 mm 1 m/S 741 mmHg 43%
    14:00 +23°C° 0 mm 1 m/S 741 mmHg 46%
    15:00 +23°C° 0 mm 1 m/S 741 mmHg 49%
    16:00 +21°C° 0 mm 0 m/S 740 mmHg 52%
    17:00 +20°C° 0 mm 1 m/S 740 mmHg 57%
    18:00 +18°C° 0 mm 1 m/S 741 mmHg 62%
    19:00 +15°C° 0 mm 1 m/S 741 mmHg 67%
    20:00 +15°C° 0 mm 1 m/S 741 mmHg 68%
    21:00 +14°C° 0 mm 1 m/S 741 mmHg 70%
    22:00 +14°C° 0 mm 1 m/S 741 mmHg 71%
    23:00 +14°C° 0 mm 1 m/S 741 mmHg 72%

    übermorgen, 19 Oktober, Donnerstag

    Zeit Temperatur Niederschläge Wind Luftdruck Luftfeuchtigkeit
    00:00 +13°C° 0 mm 1 m/S 741 mmHg 73%
    01:00 +13°C° 0 mm 1 m/S 740 mmHg 73%
    02:00 +13°C° 0 mm 1 m/S 740 mmHg 74%
    03:00 +13°C° 0 mm 1 m/S 740 mmHg 74%
    04:00 +12°C° 0 mm 1 m/S 740 mmHg 74%
    05:00 +12°C° 0 mm 1 m/S 740 mmHg 74%
    06:00 +12°C° 0 mm 1 m/S 740 mmHg 74%
    07:00 +12°C° 0 mm 1 m/S 740 mmHg 75%
    08:00 +14°C° 0 mm 1 m/S 740 mmHg 69%
    09:00 +16°C° 0 mm 1 m/S 740 mmHg 64%
    10:00 +19°C° 0 mm 1 m/S 741 mmHg 59%
    11:00 +19°C° 0 mm 1 m/S 740 mmHg 58%
    12:00 +20°C° 0 mm 1 m/S 740 mmHg 57%
    13:00 +21°C° 0 mm 1 m/S 740 mmHg 56%
    14:00 +21°C° 0 mm 1 m/S 740 mmHg 57%
    15:00 +21°C° 0 mm 1 m/S 740 mmHg 57%
    16:00 +22°C° 0 mm 1 m/S 740 mmHg 58%
    17:00 +20°C° 0 mm 1 m/S 740 mmHg 61%
    18:00 +19°C° 0 mm 1 m/S 740 mmHg 64%
    19:00 +16°C° 0 mm 1 m/S 740 mmHg 67%
    20:00 +16°C° 0 mm 1 m/S 740 mmHg 67%
    21:00 +16°C° 0 mm 1 m/S 741 mmHg 66%
    22:00 +16°C° 0 mm 2 m/S 741 mmHg 66%
    23:00 +16°C° 0 mm 2 m/S 741 mmHg 67%

    20 Oktober, Freitag

    Zeit Temperatur Niederschläge Wind Luftdruck Luftfeuchtigkeit
    00:00 +15°C° 0 mm 2 m/S 741 mmHg 69%
    01:00 +15°C° 0 mm 2 m/S 740 mmHg 70%
    02:00 +15°C° 0 mm 2 m/S 741 mmHg 70%
    03:00 +15°C° 0 mm 2 m/S 741 mmHg 71%
    04:00 +15°C° 0 mm 2 m/S 741 mmHg 71%
    05:00 +14°C° 0 mm 2 m/S 741 mmHg 72%
    06:00 +14°C° 0 mm 2 m/S 741 mmHg 73%
    07:00 +14°C° 0 mm 2 m/S 741 mmHg 74%
    08:00 +16°C° 0 mm 2 m/S 742 mmHg 70%
    09:00 +17°C° 0 mm 3 m/S 742 mmHg 65%
    10:00 +19°C° 0 mm 3 m/S 743 mmHg 61%
    11:00 +20°C° 0 mm 3 m/S 743 mmHg 59%
    12:00 +21°C° 0 mm 3 m/S 743 mmHg 57%
    13:00 +22°C° 0 mm 3 m/S 743 mmHg 55%
    14:00 +22°C° 0 mm 3 m/S 742 mmHg 57%
    15:00 +23°C° 0 mm 2 m/S 742 mmHg 60%
    16:00 +23°C° 0 mm 2 m/S 742 mmHg 62%
    17:00 +20°C° 0 mm 2 m/S 742 mmHg 67%
    18:00 +19°C° 0 mm 1 m/S 742 mmHg 73%
    19:00 +16°C° 0 mm 1 m/S 742 mmHg 78%
    20:00 +16°C° 0 mm 1 m/S 742 mmHg 78%
    21:00 +16°C° 0 mm 2 m/S 743 mmHg 78%
    22:00 +15°C° 0 mm 2 m/S 743 mmHg 78%
    23:00 +15°C° 0 mm 2 m/S 743 mmHg 77%

    21 Oktober, Samstag

    Zeit Temperatur Niederschläge Wind Luftdruck Luftfeuchtigkeit
    00:00 +15°C° 0 mm 2 m/S 742 mmHg 76%
    01:00 +15°C° 0 mm 2 m/S 742 mmHg 75%
    02:00 +14°C° 0 mm 2 m/S 742 mmHg 75%
    03:00 +14°C° 0 mm 2 m/S 742 mmHg 75%
    04:00 +14°C° 0 mm 2 m/S 742 mmHg 76%
    05:00 +14°C° 0 mm 2 m/S 742 mmHg 76%
    06:00 +14°C° 0 mm 2 m/S 742 mmHg 76%
    07:00 +14°C° 0 mm 2 m/S 741 mmHg 77%
    08:00 +16°C° 0 mm 2 m/S 741 mmHg 71%
    09:00 +17°C° 0 mm 3 m/S 741 mmHg 66%
    10:00 +19°C° 0 mm 3 m/S 741 mmHg 60%
    11:00 +20°C° 0,1 mm 4 m/S 741 mmHg 59%
    12:00 +21°C° 0,1 mm 5 m/S 741 mmHg 59%
    13:00 +22°C° 0,1 mm 5 m/S 741 mmHg 58%
    14:00 +20°C° 0,8 mm 5 m/S 741 mmHg 68%
    15:00 +18°C° 0,8 mm 4 m/S 741 mmHg 78%
    16:00 +17°C° 0,8 mm 3 m/S 742 mmHg 87%
    17:00 +16°C° 0,8 mm 3 m/S 742 mmHg 89%
    18:00 +16°C° 0,8 mm 2 m/S 742 mmHg 90%
    19:00 +15°C° 0,8 mm 2 m/S 743 mmHg 91%
    20:00 +15°C° 0,5 mm 2 m/S 743 mmHg 91%
    21:00 +14°C° 0,5 mm 2 m/S 743 mmHg 91%
    22:00 +14°C° 0,5 mm 2 m/S 743 mmHg 90%
    23:00 +12°C° 0,3 mm 3 m/S 743 mmHg 90%

    22 Oktober, Sonntag

    Zeit Temperatur Niederschläge Wind Luftdruck Luftfeuchtigkeit
    00:00 +12°C° 0,3 mm 3 m/S 743 mmHg 89%
    01:00 +12°C° 0,3 mm 3 m/S 743 mmHg 88%
    02:00 +12°C° 0,2 mm 3 m/S 743 mmHg 88%
    03:00 +12°C° 0,2 mm 3 m/S 743 mmHg 89%
    04:00 +11°C° 0,2 mm 3 m/S 743 mmHg 89%
    05:00 +11°C° 0,2 mm 4 m/S 743 mmHg 88%
    06:00 +11°C° 0,2 mm 4 m/S 743 mmHg 88%
    07:00 +10°C° 0,2 mm 4 m/S 743 mmHg 88%
    08:00 +10°C° 0,1 mm 4 m/S 743 mmHg 84%
    09:00 +10°C° 0,1 mm 5 m/S 744 mmHg 80%
    10:00 +10°C° 0,1 mm 5 m/S 744 mmHg 77%
    11:00 +11°C° 0,1 mm 6 m/S 744 mmHg 73%
    12:00 +11°C° 0,1 mm 6 m/S 744 mmHg 69%
    13:00 +11°C° 0,1 mm 6 m/S 744 mmHg 66%
    14:00 +11°C° 0,1 mm 6 m/S 744 mmHg 66%
    15:00 +12°C° 0,1 mm 5 m/S 745 mmHg 66%
    16:00 +12°C° 0,1 mm 5 m/S 745 mmHg 67%
    17:00 +11°C° 0 mm 4 m/S 745 mmHg 71%
    18:00 +10°C° 0 mm 4 m/S 746 mmHg 75%
    19:00 +9°C° 0 mm 3 m/S 747 mmHg 78%
    20:00 +7°C° 0 mm 4 m/S 747 mmHg 78%
    21:00 +7°C° 0 mm 4 m/S 747 mmHg 78%
    22:00 +7°C° 0 mm 4 m/S 747 mmHg 78%
    23:00 +7°C° 0,2 mm 4 m/S 747 mmHg 79%
    Mehr zeigen